Flag for Spain Weather past 2 weeks in Madrid, Spain

Now
75 °F

Passing clouds.


Feels Like: 78 °F
Forecast: 64 / 80 °F
Wind: 3 mph from Southeast

Location: Madrid / Cuatro Vientos

Current Time: Sep 30, 2014 at 2:18:26 PM

Latest Report: Sep 30, 2014 at 1:30 PM


Visibility: N/A

Pressure: 30.30 "Hg

Humidity: 44%

Dew point: 52 °F

Location of MadridLocation

Historic Weather in Madrid — Graph

°F

Madrid temperature yesterday

Maximum temperature yesterday: 77 °F (at 4:00 PM)
Minimum temperature yesterday: 55 °F (at 7:00 AM)
Average temperature yesterday: 67 °F

Past Weeks' High & Low Weather Summary

 TemperatureHumidityPressure
High82 °F (Sep 21, 3:30 PM)100% (Sep 22, 7:00 AM)30.30 "Hg (Sep 22, 7:00 AM)
Low52 °F (Sep 25, 7:00 AM)14% (Sep 25, 6:00 PM)29.74 "Hg (Sep 16, 5:00 PM)
Average68 °F59%30.05 "Hg
* Reported Sep 15 1:00 PM — Sep 30 1:00 PM, Madrid, Weather by CustomWeather, © 2014

Note: Actual official high and low records may vary slightly from our data, if they occured in-between our weather recording intervals... More about our weather records

Advertising

Madrid weather history for previous 24 hours

 ConditionsComfort  
Time TempWeatherWind HumidityBarometerVisibility
1:00 PM
Sep 30
75 °FSunny.No wind44%30.30 "Hg10 mi
12:30 PM72 °FSunny.3 mph50%30.30 "Hg10 mi
12:00 PM70 °FPassing clouds.3 mph53%30.30 "HgN/A
11:30 AM68 °FSunny.2 mph60%30.30 "Hg10 mi
11:00 AM68 °FSunny.2 mph60%30.30 "Hg10 mi
10:30 AM64 °FPassing clouds.3 mph68%30.30 "HgN/A
10:00 AM64 °FSunny.No wind68%30.30 "Hg10 mi
9:30 AM63 °FSunny.No wind73%30.27 "Hg10 mi
9:00 AM59 °FClear.2 mph77%30.27 "Hg10 mi
8:30 AM55 °FClear.2 mph88%30.27 "Hg10 mi
8:00 AM55 °FClear.No wind88%30.24 "Hg10 mi
7:30 AM55 °FClear.2 mph88%30.24 "Hg10 mi
7:00 AM54 °FClear.No wind94%30.24 "Hg10 mi
10:00 PM
Sep 29
63 °FPassing clouds.No wind77%30.24 "HgN/A
9:30 PM63 °FPassing clouds.1 mph77%30.24 "HgN/A
9:00 PM63 °FPassing clouds.3 mph77%30.24 "HgN/A
8:30 PM66 °FPassing clouds.5 mph68%30.21 "HgN/A
8:00 PM68 °FPassing clouds.5 mph60%30.21 "HgN/A
7:30 PM72 °FPassing clouds.3 mph50%30.21 "HgN/A
7:00 PM72 °FPassing clouds.3 mph50%30.21 "HgN/A
6:30 PM72 °FPassing clouds.2 mph47%30.21 "HgN/A
6:00 PM77 °FPassing clouds.2 mph39%30.21 "HgN/A
5:30 PM77 °FPassing clouds.2 mph39%30.21 "HgN/A
5:00 PM75 °FPassing clouds.5 mph41%30.21 "HgN/A
4:30 PM75 °FPassing clouds.3 mph41%30.21 "HgN/A
4:00 PM77 °FPassing clouds.2 mph42%30.21 "HgN/A
3:30 PM73 °FScattered clouds.3 mph44%30.24 "HgN/A
3:00 PM73 °FScattered clouds.5 mph47%30.24 "HgN/A
2:30 PM70 °FBroken clouds.6 mph60%30.24 "HgN/A
2:00 PM73 °FPartly sunny.No wind57%30.24 "HgN/A
Weather by CustomWeather, © 2014

See weather overviewHow to use our weather pages